Location: Hamburg
(53.5554°N, 9.9941°E)
Time: 23:50:26
(UTC+01:00)

ISS - Pass Details

Date: 09 January 2018
Orbit: 402 x 407 km, 51.6° (Epoch: 20 January)

Event Time Altitude Azimuth Distance (km) Brightness Sun altitude
Exits shadow 07:21:38 12° 264° (W) 1,380 -1.7 -10.0°
Maximum altitude 07:24:12 26° 207° (SSW) 831 -2.3 -9.6°
Drops below altitude 10° 07:27:01 10° 148° (SSE) 1,465 0.0 -9.2°
Sets 07:29:17 0° 136° (SE) 2,324 1.6 -8.9°
